Location: Pescara
(42.4670°N, 14.2170°E)
Time: 02:32:26
(UTC+02:00)

ISS - Pass Details

Date: 17 May 2021
Orbit: 417 x 422 km, 51.6° (Epoch: 14 June)

Event Time Altitude Azimuth Distance (km) Brightness Sun altitude
Rises 22:02:56 0° 257° (WSW) 2,356 0.5 -15.9°
Reaches altitude 10° 22:05:08 10° 266° (W) 1,496 -0.4 -16.1°
Maximum altitude 22:08:16 36° 335° (NNW) 677 -2.1 -16.5°
Drops below altitude 10° 22:11:26 10° 45° (NE) 1,504 -0.9 -16.9°
Sets 22:13:39 0° 54° (NE) 2,371 0.0 -17.2°
